Weather History for Volk, WI

Change the Weather History Date:

Wednesday, February 13, 2013

  Actual Average Record
Temperature  
Mean Temperature 26 °F -  
Max Temperature 37 °F 30 °F 51 °F (2011)
Min Temperature 14 °F 18 °F -4 °F (2008)
Degree Days  
Heating Degree Days 40    
Moisture  
Dew Point 21 °F    
Average Humidity 81    
Maximum Humidity 100    
Minimum Humidity 60    
Precipitation  
Precipitation 0.00 in - - ()
Snow  
Snow 0.00 in - - ()
Snow Depth 7.00 in    
Sea Level Pressure  
Sea Level Pressure 29.73 in    
Wind  
Wind Speed 2 mph (SW)    
Max Wind Speed 10 mph    
Max Gust Speed -    
Visibility 8 miles    
Events Rain , Snow    
Averages and records for this station are not official NWS values.
T = Trace of Precipitation, MM = Missing Value Source: NWS Daily Summary

Daily Weather History Graph

Daily Weather History Graph

Search for Another Location

Airport:

Trip Planner

Search our weather history database for the weather conditions in past years. The results will help you decide how hot, cold, wet, or windy it might be!

Date:

Astronomy

Feb. 13, 2013 Rise Set
Actual Time 7:02 AM CST 5:28 PM CST
Civil Twilight 6:32 AM CST 5:58 PM CST
Nautical Twilight 5:59 AM CST 6:32 PM CST
Astronomical Twilight 5:25 AM CST 7:05 PM CST
Moon 8:22 AM CST (2/13) 9:42 PM CST (2/13)
Length of Visible Light 11h 25m
Length of Day
10h 25m
Waxing Crescent, 14% of the Moon is Illuminated
Feb 13
Waxing Crescent
Feb 17
First Quarter
Feb 25
Full
Mar 4
Last Quarter
Mar 11
New

Hourly Weather History & Observations

Time (CST) Temp. Windchill Dew Point Humidity Pressure Visibility Wind Dir Wind Speed Gust Speed Precip Events Conditions
12:55 AM 14.2 °F - 11.8 °F 90% 29.83 in 7.0 mi Calm Calm - N/A   Clear
1:55 AM 15.4 °F - 13.3 °F 91% 29.82 in 10.0 mi Calm Calm - N/A   Clear
2:55 AM 23.2 °F 16.0 °F 21.7 °F 94% 29.81 in 10.0 mi SW 5.8 mph - N/A   Clear
3:55 AM 16.3 °F - 14.5 °F 93% 29.79 in 9.0 mi Calm Calm - N/A   Partly Cloudy
4:55 AM 16.0 °F - 14.0 °F 92% 29.78 in 9.0 mi Calm Calm - N/A   Scattered Clouds
5:50 AM 14.0 °F - 12.2 °F 93% 29.79 in 2.5 mi Calm Calm - N/A   Clear
5:51 AM 14.0 °F - 12.2 °F 93% 29.79 in 2.0 mi Calm Calm - N/A   Clear
5:55 AM 14.7 °F - 12.4 °F 90% 29.79 in 2.0 mi Calm Calm - N/A   Clear
5:58 AM 14.0 °F - 10.4 °F 86% 29.78 in 2.5 mi Calm Calm - N/A   Clear
5:59 AM 14.0 °F - 10.4 °F 86% 29.78 in 3.0 mi Calm Calm - N/A   Clear
6:55 AM 14.0 °F - 10.4 °F 86% 29.78 in 5.0 mi Calm Calm - N/A   Mostly Cloudy
7:55 AM 15.8 °F - 14.0 °F 93% 29.77 in 10.0 mi Calm Calm - N/A   Overcast
8:55 AM 21.2 °F - 19.4 °F 93% 29.76 in 10.0 mi Calm Calm - N/A   Overcast
9:55 AM 28.4 °F 22.2 °F 23.0 °F 80% 29.74 in 10.0 mi West 5.8 mph - N/A   Mostly Cloudy
10:55 AM 32.0 °F - 23.0 °F 69% 29.74 in 10.0 mi Calm Calm - N/A   Mostly Cloudy
11:55 AM 33.8 °F 27.7 °F 24.8 °F 70% 29.73 in 10.0 mi WNW 6.9 mph - N/A   Scattered Clouds
12:55 PM 37.4 °F 31.4 °F 24.8 °F 60% 29.72 in 10.0 mi West 8.1 mph - N/A   Scattered Clouds
1:55 PM 37.4 °F 32.8 °F 24.8 °F 60% 29.71 in 10.0 mi NW 5.8 mph - N/A   Overcast
2:55 PM 37.4 °F 31.4 °F 24.8 °F 60% 29.71 in 10.0 mi WNW 8.1 mph - N/A   Overcast
3:55 PM 37.4 °F 32.1 °F 26.6 °F 65% 29.71 in 10.0 mi WNW 6.9 mph - N/A   Overcast
4:55 PM 35.6 °F - 26.6 °F 70% 29.70 in 10.0 mi Calm Calm - N/A   Mostly Cloudy
5:55 PM 35.6 °F 30.7 °F 26.6 °F 70% 29.71 in 10.0 mi South 5.8 mph - N/A   Mostly Cloudy
6:55 PM 35.6 °F 30.7 °F 26.6 °F 70% 29.70 in 10.0 mi South 5.8 mph - N/A   Mostly Cloudy
7:55 PM 35.6 °F 30.7 °F 26.6 °F 70% 29.70 in 10.0 mi SSW 5.8 mph - N/A   Mostly Cloudy
8:55 PM 33.8 °F - 26.6 °F 75% 29.68 in 10.0 mi Calm Calm - N/A   Mostly Cloudy
9:55 PM 33.8 °F - 26.6 °F 75% 29.66 in 10.0 mi Calm Calm - N/A   Overcast
10:37 PM 33.8 °F 27.7 °F 28.4 °F 81% 29.62 in 10.0 mi SSE 6.9 mph - N/A Snow Light Snow
10:55 PM 33.8 °F 25.8 °F 28.4 °F 81% 29.64 in 10.0 mi SSE 10.4 mph - N/A Rain , Snow Light Rain
11:11 PM 33.8 °F 27.7 °F 30.2 °F 87% 29.60 in 10.0 mi SSE 6.9 mph - N/A Rain , Snow Light Rain
11:34 PM 32.0 °F 26.4 °F 30.2 °F 93% 29.60 in 2.5 mi SE 5.8 mph - N/A Snow Light Snow
11:55 PM 32.0 °F 24.8 °F 32.0 °F 100% 29.62 in 2.5 mi SE 8.1 mph - N/A Snow Light Snow